Wind_Speed
23 22 18 13 16 16 17 10 8 5 3 3 3 4 7 11 13 11 11 9 11 16 13 3 6 3 6 5 6 1 2 4 3 4 4 2 2 3 1 3 3 7 7 16 23
26 26 18 16 18 20 15 9 7 5 3 1 7 9 13 11 9 16 10 12 11 12 7 6 7 7 4 3 3 3 3 3 3 5 4 4 2 3 3 3 3 8 13 18 19
27 29 20 18 21 23 12 9 8 6 3 2 9 11 14 6 1 5 13 13 10 10 2 2 2 3 6 4 4 3 4 6 4 7 6 5 4 3 6 2 10 17 18 19 17
28 28 27 17 23 24 12 8 9 6 4 6 10 10 9 3 1 5 13 11 8 9 3 5 2 3 4 4 3 7 5 2 7 6 4 4 6 5 7 4 9 12 15 16 17
29 29 28 21 20 22 12 9 8 7 8 10 11 11 5 4 5 9 11 10 5 5 8 3 8 3 5 4 5 8 5 4 6 5 5 7 3 3 4 5 6 10 13 14 15
29 31 30 23 20 21 10 8 7 8 9 8 8 4 1 4 4 10 9 8 9 7 9 9 4 4 7 4 3 3 6 9 6 5 5 3 2 3 2 6 7 11 14 13 16
28 30 32 24 23 24 6 5 7 7 7 7 8 8 11 5 4 9 8 8 10 7 4 5 3 1 2 5 3 7 6 4 7 5 2 3 6 6 1 4 7 10 12 14 17
27 30 32 26 24 27 4 5 5 6 5 4 3 3 4 3 4 9 10 5 7 7 6 4 6 7 3 5 3 1 2 4 6 6 3 4 9 5 2 4 6 8 8 11 14
27 29 31 28 24 26 6 7 5 6 5 2 3 1 3 3 3 9 9 4 3 3 6 3 3 4 2 2 3 2 4 5 3 7 3 10 7 5 2 1 3 4 7 9 10
26 27 29 28 21 22 6 10 8 4 4 3 4 2 3 5 5 7 8 4 2 2 1 3 2 1 2 3 3 5 6 4 7 4 8 10 14 6 5 3 0 3 6 6 9
24 25 27 27 16 21 5 1 0 2 12 4 1 2 3 8 3 7 8 3 2 3 3 4 2 6 5 2 2 3 6 8 8 2 5 11 14 11 10 6 4 1 4 6 8
23 23 25 24 11 21 6 6 1 1 6 2 1 1 2 5 3 11 9 3 4 4 4 1 4 3 1 0 3 5 9 6 5 2 4 11 16 9 11 6 3 0 4 7 8
21 22 23 19 7 12 17 6 3 2 2 3 2 2 3 4 3 8 8 2 5 4 5 2 3 2 2 3 7 9 5 5 6 8 8 10 11 6 7 4 3 1 1 4 7
19 21 21 12 4 7 5 7 1 1 2 8 4 3 2 2 2 3 5 3 2 4 2 2 3 3 4 3 5 9 2 5 11 7 6 3 6 4 6 9 6 4 1 3 6
19 18 16 10 3 4 7 3 2 1 1 6 3 4 3 4 5 5 4 1 3 3 3 3 4 4 2 4 2 5 6 8 4 6 6 3 4 3 3 8 11 7 4 1 4
17 16 11 5 5 6 6 3 0 2 1 2 4 7 3 5 4 7 4 5 1 0 1 1 0 1 3 2 2 9 7 4 2 2 3 2 3 4 3 2 8 9 5 1 3
17 12 7 6 3 8 2 2 1 3 1 5 3 5 1 6 4 8 5 8 6 4 7 5 0 1 1 4 3 10 8 3 2 2 3 2 5 8 1 1 4 11 9 5 2
14 5 3 7 9 7 1 2 4 0 1 1 2 2 2 7 2 7 2 3 5 3 2 5 1 4 3 2 4 4 4 3 5 5 10 1 5 1 2 3 4 7 8 7 5
9 2 2 9 11 2 2 5 2 0 2 5 1 2 1 2 4 5 4 3 3 6 6 6 3 1 1 1 3 2 1 2 4 2 4 3 5 4 3 4 5 8 9 9 7
6 1 3 16 5 0 2 3 2 0 1 1 3 2 3 5 5 5 3 2 1 2 3 1 6 1 1 2 1 2 2 2 1 5 6 6 8 9 4 8 10 12 14 11 8
2 1 5 13 2 2 4 2 2 1 1 1 0 1 1 3 2 3 2 1 1 1 1 0 2 1 3 3 1 1 2 2 2 3 4 6 7 1 3 3 9 13 14 13 13
1 1 6 4 2 2 2 1 1 1 1 0 0 1 1 2 3 2 2 3 3 1 2 1 2 5 9 2 1 3 3 4 3 2 4 4 9 3 4 5 6 8 13 15 13
2 2 6 4 2 2 2 2 1 2 1 1 1 1 0 1 3 3 2 1 2 2 1 3 2 6 3 3 2 3 2 3 3 2 10 8 7 4 4 5 6 9 12 15 14
0 0 3 5 2 3 2 1 1 0 1 1 1 1 1 3 3 3 3 1 2 3 0 4 3 8 9 13 10 16 12 8 10 9 14 19 25 26 18 17 14 11 11 14 15
3 2 1 2 3 3 1 1 1 1 1 1 2 5 4 3 3 4 3 3 3 1 2 2 5 8 14 17 18 21 22 17 17 23 12 25 18 26 21 18 16 12 9 14 16
1 2 1 2 1 3 1 3 3 1 3 3 4 3 5 5 7 12 9 8 8 3 4 2 4 2 9 16 15 20 17 17 17 21 20 25 27 24 18 4 5 5 9 14 15
3 3 1 1 1 1 2 3 4 2 4 4 5 3 7 13 11 12 13 12 12 6 6 4 3 1 5 1 8 13 13 8 4 8 6 9 12 3 5 6 6 5 8 12 14
Wind_Direction
19 13 14 21 5 1 352 353 357 345 300 249 202 148 120 95 76 59 40 343 329 340 350 6 42 52 56 69 42 305 99 122 116 162 120 88 209 73 302 2 47 22 12 324 324
22 18 21 19 9 360 356 359 1 5 14 191 174 157 146 127 69 54 3 353 344 343 359 25 44 54 69 45 38 26 111 97 70 108 125 84 85 5 302 339 11 346 331 332 332
22 20 18 16 11 3 9 26 15 11 27 89 154 158 167 171 124 22 354 352 355 353 15 57 76 61 70 54 21 43 100 125 81 116 124 120 103 46 348 14 1 331 332 335 334
18 16 14 4 10 7 9 21 23 27 62 114 136 145 160 162 45 355 347 351 355 3 92 53 58 74 71 77 46 110 91 111 136 134 140 164 127 104 53 354 334 333 335 335 342
15 13 11 7 6 8 7 21 32 57 89 116 127 130 119 76 50 343 352 1 4 29 47 48 56 88 99 95 92 105 123 88 126 140 124 137 108 114 53 7 355 353 358 349 343
11 10 9 6 6 7 8 31 54 79 98 116 130 129 120 77 342 355 2 19 31 36 39 37 66 88 90 70 22 81 122 124 142 146 150 173 128 211 117 359 4 6 3 357 356
9 8 7 8 5 2 15 54 72 88 92 97 112 95 68 71 359 8 13 26 30 34 56 44 78 34 113 110 97 131 135 163 185 188 174 180 216 219 42 355 13 11 10 4 2
5 5 5 7 4 0 56 75 82 81 81 93 82 72 71 0 9 10 14 15 29 43 77 69 90 85 29 123 98 168 216 250 155 183 155 230 281 165 54 351 17 10 11 10 7
1 2 2 5 5 3 94 63 98 75 62 79 40 53 64 355 18 358 6 357 352 41 50 68 56 66 141 194 165 176 305 274 259 207 168 215 288 147 107 6 346 7 16 13 356
357 359 360 1 4 7 112 81 81 63 29 39 44 148 53 348 326 342 351 8 19 312 196 39 45 95 48 343 358 327 308 278 279 178 218 237 258 187 182 182 256 341 19 0 6
353 355 357 358 7 10 128 119 259 80 41 55 22 52 349 331 353 359 351 323 347 48 14 27 48 21 4 3 4 306 288 286 286 258 269 262 269 226 196 194 194 309 16 5 359
350 353 356 357 8 22 80 68 63 90 91 66 41 1 343 348 324 17 3 12 24 35 333 192 53 11 346 195 298 298 308 314 282 259 266 295 270 245 201 205 182 271 355 3 355
349 351 354 356 14 24 58 67 103 105 81 59 43 19 341 352 45 351 1 353 33 40 20 28 44 344 315 308 324 332 300 335 318 313 253 293 269 207 205 185 168 136 341 10 4
349 349 352 0 54 15 52 5 133 109 132 6 7 38 317 340 84 323 9 350 51 30 2 9 359 348 335 331 334 325 12 316 310 310 318 339 300 193 189 207 209 185 287 19 10
348 349 356 29 34 46 332 339 155 261 103 348 351 327 355 52 315 35 14 13 48 19 296 25 351 354 339 0 300 316 318 301 300 288 305 186 268 90 165 219 215 200 176 114 40
350 351 0 25 51 6 349 134 196 187 324 23 334 356 1 24 19 319 15 49 60 142 15 356 265 255 339 305 253 300 287 271 205 261 253 63 314 297 217 251 196 177 164 129 43
349 355 34 44 4 342 19 222 150 53 356 3 343 356 5 354 9 15 18 33 24 354 7 329 18 63 339 303 200 342 333 326 283 294 309 174 272 277 319 170 236 181 167 164 141
348 18 68 32 345 341 155 208 76 65 353 10 321 309 46 356 44 355 20 51 60 7 334 353 330 0 14 29 329 6 350 16 321 325 304 309 246 314 81 103 119 151 161 166 177
355 13 28 345 339 350 249 52 53 121 330 329 308 7 43 18 342 343 35 23 13 0 13 340 280 335 38 337 302 58 0 11 271 251 271 270 274 185 175 193 176 177 185 199 191
352 6 349 345 351 156 67 104 127 199 323 302 4 346 328 340 338 3 5 57 57 4 305 85 290 160 278 190 101 312 121 256 207 308 300 280 293 269 225 223 209 211 209 200 197
24 196 340 347 33 47 73 89 154 156 238 356 228 275 287 315 322 329 340 119 217 183 5 172 258 241 270 208 278 204 199 187 281 260 289 311 289 344 272 209 220 226 212 201 195
67 185 342 6 47 42 80 111 148 141 36 119 130 266 277 324 299 293 282 249 194 233 329 46 308 282 285 359 355 275 255 220 267 251 251 289 273 165 253 246 240 234 214 204 201
34 326 345 2 92 97 118 118 138 166 180 169 202 244 168 270 292 231 255 338 170 249 353 166 228 299 275 158 112 244 200 248 301 326 263 266 264 177 209 239 232 231 211 199 189
157 127 31 54 28 91 134 128 159 59 195 192 153 145 199 245 222 291 265 288 177 223 318 179 232 240 274 296 301 283 265 246 249 272 261 246 271 277 270 283 283 257 228 200 188
10 92 44 82 68 89 88 127 162 228 215 208 204 226 207 255 244 231 242 278 217 166 157 217 244 239 258 274 272 269 270 260 243 244 256 270 273 277 293 300 300 300 232 196 191
114 153 95 103 151 150 189 188 190 235 210 204 225 189 210 236 239 283 280 285 263 140 174 190 263 243 279 261 269 269 275 259 250 260 251 261 271 280 291 295 285 286 211 204 197
128 102 264 63 126 203 191 176 195 197 214 240 219 237 244 250 261 275 271 264 255 251 207 198 225 290 270 200 298 277 262 216 198 229 234 250 272 296 263 269 295 293 229 217 201
Height
850 846 843 840 837 833 830 827 825 824 823 823 823 824 824 825 824 823 825 828 825 820 817 815 814 813 813 816 819 820 821 829 834 834 838 839 838 843 845 841 844 850 850 850 846
851 847 844 841 837 833 829 826 825 823 822 822 822 823 824 824 825 825 828 826 824 821 818 816 813 813 814 818 820 818 822 833 832 833 836 844 842 846 843 842 843 848 850 850 847
853 849 845 842 838 833 829 827 825 823 822 822 822 823 825 825 826 830 828 825 823 820 818 817 817 815 818 819 825 824 829 833 837 837 839 843 847 849 845 843 852 852 850 849 846
854 850 846 842 838 833 829 827 825 824 823 823 824 825 826 828 834 832 829 826 823 820 818 818 816 817 822 824 826 831 833 832 838 841 842 842 847 851 853 856 856 855 853 850 847
855 851 847 842 838 834 830 828 826 825 825 825 826 827 828 829 834 833 829 826 824 822 820 819 818 820 824 826 826 828 836 839 841 844 844 846 849 849 854 856 855 853 851 850 848
856 851 846 842 838 835 831 829 828 827 827 827 828 829 829 834 836 833 830 828 826 825 825 823 823 823 826 830 829 835 836 842 843 844 846 846 851 852 853 855 853 851 850 850 849
857 852 847 842 838 834 831 830 829 829 829 829 830 830 831 839 836 834 832 830 830 829 828 828 828 825 827 832 837 837 840 841 843 843 845 847 846 845 853 854 852 851 850 850 849
857 852 847 843 839 834 831 831 831 831 831 831 831 831 837 838 837 836 834 833 831 830 830 830 829 830 831 836 836 836 836 835 836 842 847 846 828 844 854 854 853 853 852 852 851
857 852 847 843 839 834 832 832 833 833 833 832 833 831 839 838 838 837 835 835 833 832 831 831 832 834 836 833 835 837 832 836 835 838 844 843 827 845 854 854 852 851 851 851 852
857 853 848 844 840 835 834 834 834 834 834 834 834 836 840 843 840 838 837 835 834 833 832 831 832 831 833 828 834 837 836 836 837 837 843 838 835 846 850 851 852 851 849 851 851
858 854 849 845 840 836 834 834 838 837 839 846 848 846 845 844 841 840 838 837 835 833 835 837 833 838 841 842 843 844 843 840 832 837 841 830 828 831 843 848 849 851 848 850 851
857 853 849 845 842 839 835 840 846 847 846 848 847 846 846 846 843 841 839 838 836 840 840 836 839 844 846 848 847 844 840 832 834 840 841 826 824 821 838 841 848 853 852 853 851
856 852 848 845 842 841 842 847 847 847 843 848 848 847 848 847 847 845 843 842 842 843 845 840 845 847 847 844 842 834 840 838 843 838 835 836 812 829 839 846 852 856 857 856 855
856 853 849 844 846 845 847 848 847 848 843 853 848 849 848 846 848 847 846 846 844 847 848 846 847 849 846 846 848 841 845 846 844 841 829 836 815 815 829 840 846 851 857 857 857
856 853 849 845 847 848 851 848 847 848 864 856 851 849 848 848 852 846 848 843 848 850 849 848 849 849 847 850 852 844 846 845 845 841 842 831 833 804 831 830 834 842 850 854 856
855 852 850 849 849 850 848 848 849 848 873 860 856 857 850 852 852 849 847 847 850 850 849 849 852 851 849 851 851 846 842 843 844 840 836 831 831 796 814 818 820 837 848 855 856
854 852 850 850 852 849 848 849 847 855 864 864 864 862 863 860 854 857 858 856 856 852 852 848 848 850 852 846 848 841 835 833 831 828 820 835 831 801 815 826 825 834 843 851 855
854 852 852 852 850 849 849 844 857 868 866 867 867 865 862 866 862 858 856 855 861 860 858 858 851 850 852 851 851 850 847 847 851 836 827 828 822 797 829 835 835 838 845 850 853
853 853 853 852 849 848 847 854 864 869 871 869 866 863 862 864 865 857 861 862 865 864 861 859 850 852 854 853 853 847 848 856 851 852 852 819 810 831 834 837 841 843 848 851 852
854 853 853 850 847 848 844 868 870 871 871 870 866 870 865 865 862 862 864 866 866 867 866 865 863 854 852 855 855 850 853 849 850 845 838 816 815 806 813 819 832 836 838 843 851
853 851 852 848 848 846 857 867 870 871 870 869 869 869 869 868 869 865 865 866 866 866 866 866 868 851 854 849 847 852 850 853 853 850 842 832 805 800 807 812 816 821 829 835 843
852 850 850 847 848 863 862 868 871 871 871 871 871 871 870 871 870 868 867 864 865 865 865 870 869 863 848 851 857 853 847 845 847 848 848 851 823 808 810 812 815 813 820 828 836
855 855 851 848 851 861 869 870 870 869 871 870 870 872 873 872 871 869 867 865 867 868 865 870 867 863 839 851 857 854 853 850 851 852 846 844 809 807 811 812 811 809 813 820 829
857 853 855 858 869 863 867 870 870 872 871 871 870 872 872 871 870 869 867 864 866 865 866 867 867 863 857 848 851 849 846 847 847 846 831 818 804 790 796 797 798 805 810 816 824
860 865 869 861 866 869 870 872 871 870 871 871 871 870 869 869 868 867 867 864 862 867 868 870 868 862 855 851 849 842 835 839 842 832 834 797 802 783 788 790 793 798 803 813 820
859 862 872 872 873 868 872 870 869 869 868 867 869 867 868 869 861 860 861 861 860 867 866 873 863 867 861 847 847 842 831 829 829 822 819 810 801 789 790 801 803 803 806 811 817
861 863 862 877 874 870 866 869 869 870 865 864 864 865 866 861 859 859 858 857 856 859 866 869 868 866 853 850 851 835 810 810 812 814 811 807 786 794 796 800 802 805 808 809 813